Location: Dziadowski
(50.3833°N, 20.0333°E)
Time: 17:01:24
(UTC+00:00)

Cosmos 1484 Rocket - Pass Details

Date: 18 January 2026
Orbit: 439 x 466 km, 97.6° (Epoch: 16 February)

Event Time Altitude Azimuth Distance (km) Brightness Sun altitude
Rises 05:03:20 0° 9° (N) 2,459 6.1 -13.7°
Reaches altitude 10° 05:05:23 10° 5° (N) 1,587 5.1 -13.3°
Maximum altitude 05:08:42 53° 288° (WNW) 567 2.5 -12.8°
Drops below altitude 10° 05:12:01 10° 211° (SSW) 1,590 5.0 -12.3°
Sets 05:14:05 0° 206° (SSW) 2,464 6.1 -12.0°
